Philadelphia, PA

3:56 PM EST on February 10, 2016 (GMT -0500)
Philadelphia International

Weather History for KPHL - October, 2012

Change the Weather History Date:

Wednesday, October 10, 2012

  Actual Average Record
Temperature  
Mean Temperature 62 °F 60 °F  
Max Temperature 69 °F 69 °F 90 °F (1939)
Min Temperature 54 °F 50 °F 33 °F (1979)
Degree Days  
Heating Degree Days 3 7  
Month to date heating degree days 46 52  
Since 1 July heating degree days 60 90  
Cooling Degree Days 0 1  
Month to date cooling degree days 27 14  
Year to date cooling degree days 1599 1292  
Growing Degree Days 13 (Base 50)    
Moisture  
Dew Point 52 °F    
Average Humidity 67    
Maximum Humidity 93    
Minimum Humidity 40    
Precipitation  
Precipitation T in 0.11 in 2.10 in (1971)
Month to date precipitation 0.30 1.10  
Year to date precipitation 26.69 32.90  
Snow  
Snow 0.00 in 0.00 in 2.10 in (1979)
Month to date snowfall 0.0 0.0  
Since 1 July snowfall 0.0 0.0  
Since 1 September snowfall 0.0 0.0  
Snow Depth 0.00 in    
Sea Level Pressure  
Sea Level Pressure 29.96 in    
Wind  
Wind Speed 10 mph (WNW)    
Max Wind Speed 23 mph    
Max Gust Speed 28 mph    
Visibility 8 miles    
Events Rain    
T = Trace of Precipitation, MM = Missing Value Source: NWS Daily Summary

Daily Weather History Graph

Daily Weather History Graph

Search for Another Location

Airport or City:

Trip Planner

Search our weather history database for the weather conditions in past years. The results will help you decide how hot, cold, wet, or windy it might be!

Date:

Astronomy

Oct. 10, 2012 Rise Set
Actual Time 7:06 AM EDT 6:28 PM EDT
Civil Twilight 6:39 AM EDT 6:55 PM EDT
Nautical Twilight 6:08 AM EDT 7:26 PM EDT
Astronomical Twilight 5:36 AM EDT 7:57 PM EDT
Moon 1:40 AM EDT 3:29 PM EDT
Length of Visible Light 12h 15m
Length of Day
11h 21m
Waning Crescent, 27% of the Moon is Illuminated
Oct 10
Waning Crescent
Oct 15
New
Oct 21
First Quarter
Oct 29
Full
Nov 6
Last Quarter

Hourly Weather History & Observations

Time (EDT) Temp. Dew Point Humidity Pressure Visibility Wind Dir Wind Speed Gust Speed Precip Events Conditions
12:26 AM 57.2 °F 55.4 °F 94% 30.06 in 7.0 mi NE 6.9 mph - 0.00 in   Overcast
12:38 AM 57.2 °F 55.4 °F 94% 30.05 in 8.0 mi NE 5.8 mph - 0.00 in   Overcast
12:54 AM 57.9 °F 55.0 °F 90% 30.05 in 8.0 mi ENE 6.9 mph - 0.00 in   Overcast
1:54 AM 57.9 °F 55.9 °F 93% 30.04 in 8.0 mi NE 6.9 mph - N/A   Overcast
2:54 AM 57.9 °F 55.9 °F 93% 30.01 in 8.0 mi NE 6.9 mph - N/A   Overcast
3:54 AM 57.9 °F 55.9 °F 93% 29.99 in 8.0 mi NNE 4.6 mph - N/A   Overcast
4:42 AM 57.2 °F 55.4 °F 94% 29.99 in 8.0 mi NW 3.5 mph - N/A   Overcast
4:54 AM 57.9 °F 55.9 °F 93% 29.98 in 8.0 mi NNE 4.6 mph - N/A   Overcast
5:33 AM 59.0 °F 55.4 °F 88% 29.97 in 9.0 mi Calm Calm - N/A   Overcast
5:54 AM 59.0 °F 55.9 °F 90% 29.98 in 9.0 mi North 3.5 mph - N/A   Overcast
6:54 AM 59.0 °F 57.0 °F 93% 29.98 in 7.0 mi Calm Calm - N/A   Overcast
7:11 AM 57.2 °F 55.4 °F 94% 29.97 in 4.0 mi Calm Calm - N/A   Overcast
7:45 AM 59.0 °F 57.2 °F 94% 29.98 in 4.0 mi Calm Calm - N/A   Overcast
7:54 AM 59.0 °F 55.9 °F 90% 29.98 in 4.0 mi Calm Calm - N/A   Overcast
8:11 AM 59.0 °F 57.2 °F 94% 29.98 in 2.5 mi Calm Calm - N/A   Overcast
8:44 AM 59.0 °F 57.2 °F 94% 29.98 in 1.8 mi NW 4.6 mph - 0.00 in   Light Drizzle
8:54 AM 59.0 °F 57.0 °F 93% 29.98 in 1.8 mi WNW 4.6 mph - 0.00 in   Light Drizzle
9:17 AM 59.0 °F 57.2 °F 94% 29.97 in 2.0 mi Calm Calm - 0.00 in   Overcast
9:33 AM 59.0 °F 57.2 °F 94% 29.97 in 3.0 mi Calm Calm - 0.00 in   Light Drizzle
9:54 AM 60.1 °F 57.0 °F 90% 29.97 in 4.0 mi WSW 9.2 mph - 0.00 in   Overcast
10:02 AM 60.8 °F 57.2 °F 88% 29.96 in 5.0 mi WSW 9.2 mph - N/A   Overcast
10:16 AM 60.8 °F 57.2 °F 88% 29.96 in 7.0 mi WSW 10.4 mph - 0.00 in Rain Light Rain
10:42 AM 60.8 °F 55.4 °F 82% 29.95 in 10.0 mi WSW 12.7 mph - 0.00 in   Overcast
10:54 AM 61.0 °F 55.9 °F 83% 29.95 in 10.0 mi WSW 13.8 mph - 0.00 in   Overcast
11:31 AM 62.6 °F 55.4 °F 77% 29.94 in 10.0 mi SW 8.1 mph - N/A   Mostly Cloudy
11:54 AM 63.0 °F 54.0 °F 72% 29.93 in 10.0 mi WSW 11.5 mph - N/A   Mostly Cloudy
12:19 PM 64.4 °F 53.6 °F 68% 29.93 in 10.0 mi WSW 13.8 mph - N/A   Mostly Cloudy
12:54 PM 66.0 °F 51.1 °F 59% 29.91 in 10.0 mi WSW 12.7 mph - N/A   Mostly Cloudy
1:54 PM 68.0 °F 48.0 °F 49% 29.88 in 10.0 mi WSW 18.4 mph - N/A   Scattered Clouds
2:54 PM 68.0 °F 46.0 °F 45% 29.86 in 10.0 mi WSW 16.1 mph - N/A   Scattered Clouds
3:54 PM 68.0 °F 44.1 °F 42% 29.85 in 10.0 mi West 12.7 mph 21.9 mph N/A   Scattered Clouds
4:54 PM 66.9 °F 41.0 °F 39% 29.86 in 10.0 mi West 15.0 mph - N/A   Partly Cloudy
5:54 PM 64.9 °F 43.0 °F 45% 29.86 in 10.0 mi West 12.7 mph - N/A   Partly Cloudy
6:54 PM 64.0 °F 43.0 °F 46% 29.88 in 10.0 mi West 10.4 mph - N/A   Scattered Clouds
7:54 PM 63.0 °F 46.0 °F 54% 29.90 in 10.0 mi SW 6.9 mph - N/A   Overcast
8:54 PM 62.1 °F 46.0 °F 56% 29.94 in 10.0 mi WNW 18.4 mph 27.6 mph N/A   Scattered Clouds
9:54 PM 60.1 °F 41.0 °F 49% 29.99 in 10.0 mi WNW 15.0 mph 23.0 mph N/A   Scattered Clouds
10:54 PM 57.9 °F 37.9 °F 47% 30.02 in 10.0 mi WNW 11.5 mph 19.6 mph N/A   Partly Cloudy
11:54 PM 55.0 °F 39.0 °F 55% 30.05 in 10.0 mi NW 6.9 mph - N/A   Partly Cloudy